• Join FlightAware (Why Join?)
  • Login
  • US Flag 
01:28AM EDT


 

Airport Tracker/Info


-or-


 

Live Flight TrackerFlight Track Log ✈ AAL2468 ✈ 06-Jul-2013 ✈ KLAX - KDFW

Flight Track Log - Related Links

Times and Time Zones

All times are in EDT time to prevent confusion due to time zone crossing. See the AAL2468 flight status page for this flight to view local times or setup timezone preferences in your user account.

Time Position Orientation Groundspeed Altitude Reporting Facility
EDT Latitude Longitude Course Direction KTS MPH feet Rate Location/Type
09:51PM 33.9333 -118.4667 90° East 195 224 2,500  Level Southern California TRACON
09:52PM 33.8797 -118.5294 224° Southwest 258 297 5,200 2,580 Climbing Los Angeles Center
09:53PM 33.7656 -118.6208 132° Southeast  Level FlightAware Approximate
09:54PM 33.6823 -118.5106 101° East  Level FlightAware Approximate
09:54PM 33.7319 -118.5297 180° South 295 339 10,400  Level Los Angeles Center
09:55PM 33.6472 -118.3680 116° Southeast  Level FlightAware Approximate
09:55PM 33.6839 -118.4778 138° Southeast 312 359 12,400  Level Los Angeles Center
09:56PM 33.6333 -118.2220 90° East  Level FlightAware Approximate
09:56PM 33.6472 -118.3550 110° East 329 379 14,400  Level Los Angeles Center
09:57PM 33.6333 -118.0773 90° East  Level FlightAware Approximate
09:57PM 33.6439 -118.2128 92° East 363 418 16,700  Level Los Angeles Center
09:58PM 33.6444 -118.0864 90° East 379 436 19,000 1,980 Climbing Los Angeles Center
09:59PM 33.6447 -117.9583 90° East 386 444 20,800 1,620 Climbing Los Angeles Center
10:00PM 33.6442 -117.8228 90° East 400 460 22,400 1,560 Climbing Los Angeles Center
10:01PM 33.6428 -117.6839 91° East 416 479 24,000 1,500 Climbing Los Angeles Center
10:02PM 33.6431 -117.5397 90° East 432 497 25,500 1,440 Climbing Los Angeles Center
10:03PM 33.6417 -117.3956 91° East 435 501 27,000 1,560 Climbing Los Angeles Center
10:04PM 33.6403 -117.2175 90° East 445 512 28,700 1,560 Climbing Los Angeles Center
10:05PM 33.6400 -117.0650 90° East 456 525 30,300 1,440 Climbing Los Angeles Center
10:06PM 33.6378 -116.9092 91° East 466 536 31,700 1,560 Climbing Los Angeles Center
10:07PM 33.6356 -116.7383 91° East 478 550 33,500 1,740 Climbing Los Angeles Center
10:08PM 33.6342 -116.5797 91° East 474 545 35,300 1,560 Climbing Los Angeles Center
10:10PM 33.6317 -116.4244 91° East 466 536 36,700 1,260 Climbing Los Angeles Center
10:11PM 33.6300 -116.2678 91° East 467 537 38,000 1,080 Climbing Los Angeles Center
10:12PM 33.6267 -116.1111 91° East 468 539 39,000 480 Climbing Los Angeles Center
10:13PM 33.6233 -115.9536 91° East 471 542 39,000  Level Los Angeles Center
10:14PM 33.6211 -115.7956 91° East 472 543 39,000  Level Los Angeles Center
10:15PM 33.6172 -115.6369 92° East 475 547 39,000  Level Los Angeles Center
10:16PM 33.6133 -115.4786 92° East 475 547 39,000  Level Los Angeles Center
10:17PM 33.6086 -115.3228 92° East 470 541 39,000  Level Los Angeles Center
10:18PM 33.6053 -115.1333 91° East 474 545 39,000  Level Los Angeles Center
10:19PM 33.6033 -114.9769 91° East 472 543 39,000  Level Los Angeles Center
10:20PM 33.6014 -114.8189 91° East 474 545 39,000  Level Los Angeles Center
10:21PM 33.5983 -114.6617 91° East 475 547 39,000  Level Los Angeles Center
10:22PM 33.5958 -114.5044 91° East 474 545 39,000  Level Los Angeles Center
10:23PM 33.5925 -114.3467 91° East 474 545 39,000  Level Los Angeles Center
10:23PM 33.5939 -114.2608 89° East 471 542 39,000  Level Albuquerque Center
10:24PM 33.6003 -114.1006 87° East 474 545 39,000  Level Albuquerque Center
10:25PM 33.6128 -113.9411 85° East 477 549 39,000  Level Albuquerque Center
10:26PM 33.6239 -113.7492 86° East 481 554 39,000  Level Albuquerque Center
10:27PM 33.6378 -113.5892 84° East 482 555 39,000  Level Albuquerque Center
10:29PM 33.6511 -113.4308 84° East 481 554 39,000  Level Albuquerque Center
10:30PM 33.6639 -113.2719 84° East 480 552 39,000  Level Albuquerque Center
10:31PM 33.6725 -113.1136 86° East 478 550 39,000  Level Albuquerque Center
10:32PM 33.6831 -112.9556 85° East 477 549 39,000  Level Albuquerque Center
10:33PM 33.6897 -112.7983 87° East 476 548 39,000  Level Albuquerque Center
10:34PM 33.6947 -112.6417 88° East 472 543 39,000  Level Albuquerque Center
10:35PM 33.6992 -112.4847 88° East 471 542 39,000  Level Albuquerque Center
10:36PM 33.7000 -112.3286 90° East 471 542 39,000  Level Albuquerque Center
10:37PM 33.6994 -112.1733 90° East 469 540 39,000  Level Albuquerque Center
10:38PM 33.6947 -111.9867 92° East 471 542 39,000  Level Albuquerque Center
10:39PM 33.6844 -111.8325 95° East 471 542 39,000  Level Albuquerque Center
10:40PM 33.6764 -111.6800 94° East 468 539 39,000  Level Albuquerque Center
10:41PM 33.6686 -111.5286 93° East 461 531 39,000  Level Albuquerque Center
10:42PM 33.6608 -111.3767 93° East 460 529 39,000  Level Albuquerque Center
10:43PM 33.6522 -111.2228 94° East 465 535 39,000  Level Albuquerque Center
10:44PM 33.6433 -111.0692 94° East 466 536 39,000  Level Albuquerque Center
10:45PM 33.6350 -110.9144 94° East 466 536 39,000  Level Albuquerque Center
10:46PM 33.6253 -110.7608 94° East 465 535 39,000  Level Albuquerque Center
10:47PM 33.6144 -110.5775 94° East 462 532 39,000  Level Albuquerque Center
10:48PM 33.6044 -110.4239 94° East 463 533 39,000  Level Albuquerque Center
10:49PM 33.5950 -110.2697 94° East 465 535 39,000  Level Albuquerque Center
10:50PM 33.5856 -110.1167 94° East 462 532 39,000  Level Albuquerque Center
10:51PM 33.5744 -109.9661 95° East 467 537 39,000  Level Albuquerque Center
10:52PM 33.5639 -109.8122 95° East 467 537 39,000  Level Albuquerque Center
10:53PM 33.5511 -109.6608 96° East 461 531 39,000  Level Albuquerque Center
10:54PM 33.5353 -109.5089 97° East 460 529 39,000  Level Albuquerque Center
10:55PM 33.5269 -109.3522 94° East 467 537 39,000  Level Albuquerque Center
10:56PM 33.5136 -109.1661 95° East 469 540 39,000  Level Albuquerque Center
10:57PM 33.5081 -109.0194 93° East 474 545 39,000  Level Albuquerque Center
10:58PM 33.4947 -108.8494 95° East 476 548 39,000  Level Albuquerque Center
10:59PM 33.4836 -108.6928 95° East 473 544 39,000  Level Albuquerque Center
11:00PM 33.4708 -108.5361 96° East 473 544 39,000  Level Albuquerque Center
11:01PM 33.4558 -108.3819 97° East 469 540 39,000  Level Albuquerque Center
11:02PM 33.4433 -108.2244 95° East 474 545 39,000  Level Albuquerque Center
11:03PM 33.4319 -108.0672 95° East 474 545 39,000  Level Albuquerque Center
11:04PM 33.4175 -107.9103 96° East 475 547 39,000  Level Albuquerque Center
11:05PM 33.4050 -107.7531 95° East 475 547 39,000  Level Albuquerque Center
11:06PM 33.3914 -107.5969 96° East 472 543 39,000  Level Albuquerque Center
11:07PM 33.3778 -107.4417 96° East 470 541 39,000  Level Albuquerque Center
11:08PM 33.3636 -107.2869 96° East 468 539 39,000  Level Albuquerque Center
11:09PM 33.3478 -107.1006 96° East 468 539 39,000  Level Albuquerque Center
11:10PM 33.3339 -106.9447 96° East 469 540 39,000  Level Albuquerque Center
11:11PM 33.3197 -106.7889 96° East 469 540 39,000  Level Albuquerque Center
11:12PM 33.3044 -106.6342 97° East 469 540 39,000  Level Albuquerque Center
11:13PM 33.2903 -106.4808 96° East 465 535 39,000  Level Albuquerque Center
11:14PM 33.2744 -106.3272 97° East 466 536 39,000  Level Albuquerque Center
11:15PM 33.2600 -106.1731 96° East 465 535 39,000  Level Albuquerque Center
11:16PM 33.2453 -106.0194 96° East 465 535 39,000  Level Albuquerque Center
11:17PM 33.2300 -105.8675 97° East 464 534 39,000  Level Albuquerque Center
11:18PM 33.2144 -105.7139 97° East 463 533 39,000  Level Albuquerque Center
11:19PM 33.1950 -105.5344 97° East 466 536 39,000  Level Albuquerque Center
11:20PM 33.1797 -105.3814 97° East 468 539 39,000  Level Albuquerque Center
11:21PM 33.1617 -105.2272 98° East 470 541 39,000  Level Albuquerque Center
11:22PM 33.1456 -105.0731 97° East 470 541 39,000  Level Albuquerque Center
11:23PM 33.1275 -104.9072 97° East 470 541 39,000  Level Albuquerque Center
11:24PM 33.1100 -104.7539 98° East 469 540 39,000  Level Albuquerque Center
11:25PM 33.0933 -104.5997 97° East 473 544 39,000  Level Albuquerque Center
11:27PM 33.0764 -104.4442 97° East 477 549 39,000  Level Albuquerque Center
11:28PM 33.0597 -104.2803 97° East 468 539 39,000  Level Albuquerque Center
11:29PM 33.0425 -104.1275 98° East 467 537 39,000  Level Albuquerque Center
11:30PM 33.0258 -103.9736 97° East 468 539 39,000  Level Albuquerque Center
11:31PM 33.0086 -103.8203 98° East 468 539 39,000  Level Albuquerque Center
11:32PM 32.9922 -103.6747 98° East 465 535 39,000  Level Albuquerque Center
11:33PM 32.9736 -103.5253 98° East 458 527 39,000  Level Albuquerque Center
11:34PM 32.9544 -103.3733 99° East 462 532 39,000  Level Albuquerque Center
11:35PM 32.9364 -103.2233 98° East 459 528 39,000  Level Albuquerque Center
11:36PM 32.9167 -103.0675 99° East 465 535 39,000  Level Fort Worth Center
11:37PM 32.9003 -102.9181 97° East 460 529 39,000  Level Fort Worth Center
11:38PM 32.8819 -102.7661 98° East 454 522 39,000  Level Fort Worth Center
11:39PM 32.8631 -102.6192 99° East 454 522 39,000  Level Fort Worth Center
11:40PM 32.8442 -102.4672 98° East 454 522 39,000  Level Fort Worth Center
11:41PM 32.8231 -102.3178 100° East 454 522 39,000  Level Fort Worth Center
11:42PM 32.8058 -102.1686 98° East 454 522 39,000  Level Fort Worth Center
11:43PM 32.7842 -102.0217 100° East 454 522 39,000  Level Fort Worth Center
11:44PM 32.7644 -101.8750 99° East 454 522 39,000  Level Fort Worth Center
11:45PM 32.7425 -101.7281 100° East 454 522 39,000  Level Fort Worth Center
11:46PM 32.7206 -101.5689 99° East 444 511 39,000  Level Fort Worth Center
11:47PM 32.7044 -101.4225 97° East 444 511 39,000  Level Fort Worth Center
11:48PM 32.6800 -101.2758 101° East 451 519 39,000  Level Fort Worth Center
11:49PM 32.6592 -101.1294 100° East 451 519 39,000  Level Fort Worth Center
11:50PM 32.6386 -100.9806 99° East 451 519 39,000  Level Fort Worth Center
11:51PM 32.6178 -100.8319 99° East 451 519 39,000  Level Fort Worth Center
11:52PM 32.5964 -100.6881 100° East 451 519 39,000  Level Fort Worth Center
11:53PM 32.5753 -100.5394 100° East 451 519 39,000  Level Fort Worth Center
11:54PM 32.5536 -100.3956 100° East 451 519 39,000  Level Fort Worth Center
11:55PM 32.5300 -100.2494 101° East 451 519 39,000  Level Fort Worth Center
11:56PM 32.5061 -100.1008 101° East 451 519 39,000  Level Fort Worth Center
11:57PM 32.4842 -99.9525 100° East 451 519 39,000  Level Fort Worth Center
11:58PM 32.4619 -99.8042 100° East 451 519 39,000  Level Fort Worth Center
11:59PM 32.4397 -99.6533 100° East 451 519 39,000  Level Fort Worth Center
12:00AM 32.4192 -99.5078 99° East 451 519 39,000  Level Fort Worth Center
12:01AM 32.3964 -99.3597 100° East 451 519 39,000  Level Fort Worth Center
12:02AM 32.3736 -99.2114 100° East 451 519 39,000  Level Fort Worth Center
12:03AM 32.3528 -99.0661 100° East 451 519 39,000 -1,020 Level Fort Worth Center
12:04AM 32.3567 -98.9233 88° East 445 512 37,000 -2,760 Descending Fort Worth Center
12:05AM 32.3686 -98.7761 84° East 440 506 33,600 -3,480 Descending Fort Worth Center
12:06AM 32.3828 -98.6286 83° East 446 513 30,100 -3,540 Descending Fort Worth Center
12:07AM 32.3967 -98.4714 84° East 458 527 26,600 -3,540 Descending Fort Worth Center
12:08AM 32.4083 -98.3164 85° East 465 535 23,100 -3,060 Descending Fort Worth Center
12:09AM 32.4175 -98.1836 85° East 458 527 20,500 -2,700 Descending Fort Worth Center
12:10AM 32.4311 -98.0239 84° East 447 514 17,800 -2,520 Descending Fort Worth Center
12:11AM 32.4419 -97.9033 84° East 414 476 15,500 -2,580 Descending Fort Worth Center
12:12AM 32.4883 -97.7781 66° East 384 442 12,700 -2,220 Descending Fort Worth Center
12:13AM 32.5428 -97.6819 56° Northeast 374 430 11,100 -900 Descending Fort Worth Center
12:14AM 32.6017 -97.5639 59° Northeast 381 438 11,000 -60 Descending Fort Worth Center
12:15AM 32.6433 -97.4825 59° Northeast 346 398 11,000  Level Fort Worth Center
12:16AM 32.6914 -97.3911 58° Northeast 303 349 11,000  Level Fort Worth Center
12:17AM 32.7289 -97.3172 59° Northeast 297 342 11,000  Level Fort Worth Center
12:18AM 32.8061 -97.2628 31° Northeast 290 334 11,000 -780 Level Fort Worth Center
12:19AM 32.8728 -97.2256 25° Northeast 290 334 9,500 -2,100 Descending Fort Worth Center
12:20AM 32.9500 -97.1833 25° Northeast 290 334 6,900 -2,580 Descending Fort Worth Center
12:21AM 33.0231 -97.1458 23° Northeast 295 339 4,400 -1,980 Descending Fort Worth Center
12:22AM 33.0625 -97.0814 54° Northeast 245 282 3,000 -720 Descending Fort Worth Center
12:22AM 33.0667 -97.0333 84° East 161 185 3,200 -120 Climbing Dallas / Fort Worth TRACON
12:23AM 33.0333 -97.0333 180° South 145 167 2,900 -480 Descending Dallas / Fort Worth TRACON